Hourly Weather Otola

Today, 23 July, Friday

Time Temperature Precipitation Wind Pressure Humidity
00:00 +17°C° 0 mm 0 mps 738 mmHg 67%
01:00 +17°C° 0 mm 0 mps 738 mmHg 68%
02:00 +17°C° 0 mm 0 mps 738 mmHg 68%
03:00 +16°C° 0 mm 0 mps 738 mmHg 69%
04:00 +16°C° 0 mm 0 mps 737 mmHg 70%
05:00 +17°C° 0 mm 0 mps 737 mmHg 71%
06:00 +17°C° 0 mm 0 mps 737 mmHg 72%
07:00 +17°C° 0 mm 0 mps 737 mmHg 73%
08:00 +18°C° 0 mm 0 mps 737 mmHg 70%
09:00 +19°C° 0 mm 0 mps 738 mmHg 67%
10:00 +21°C° 0 mm 1 mps 738 mmHg 65%
11:00 +22°C° 0 mm 1 mps 737 mmHg 61%
12:00 +23°C° 0 mm 1 mps 737 mmHg 57%
13:00 +24°C° 0 mm 1 mps 737 mmHg 52%
14:00 +24°C° 0 mm 1 mps 737 mmHg 52%
15:00 +24°C° 0 mm 1 mps 737 mmHg 52%
16:00 +25°C° 0 mm 1 mps 736 mmHg 52%
17:00 +23°C° 0 mm 1 mps 736 mmHg 59%
18:00 +22°C° 0 mm 1 mps 736 mmHg 65%
19:00 +20°C° 0 mm 2 mps 736 mmHg 71%
20:00 +20°C° 0 mm 1 mps 736 mmHg 72%
21:00 +20°C° 0 mm 1 mps 736 mmHg 72%
22:00 +20°C° 0 mm 1 mps 736 mmHg 72%
23:00 +20°C° 0 mm 1 mps 736 mmHg 72%

Tomorrow, 24 July, Saturday

Time Temperature Precipitation Wind Pressure Humidity
00:00 +19°C° 0 mm 1 mps 736 mmHg 72%
01:00 +19°C° 0 mm 1 mps 736 mmHg 73%
02:00 +19°C° 0 mm 1 mps 736 mmHg 73%
03:00 +19°C° 0 mm 1 mps 736 mmHg 73%
04:00 +19°C° 0 mm 1 mps 736 mmHg 73%
05:00 +19°C° 0 mm 1 mps 736 mmHg 72%
06:00 +20°C° 0 mm 1 mps 736 mmHg 71%
07:00 +21°C° 0 mm 1 mps 736 mmHg 70%
08:00 +21°C° 0 mm 2 mps 736 mmHg 65%
09:00 +24°C° 0 mm 2 mps 736 mmHg 59%
10:00 +25°C° 0 mm 2 mps 736 mmHg 53%
11:00 +25°C° 0 mm 2 mps 736 mmHg 52%
12:00 +26°C° 0 mm 2 mps 736 mmHg 51%
13:00 +26°C° 0 mm 2 mps 736 mmHg 51%
14:00 +26°C° 0 mm 2 mps 736 mmHg 52%
15:00 +26°C° 0 mm 3 mps 736 mmHg 53%
16:00 +26°C° 0 mm 3 mps 735 mmHg 54%
17:00 +25°C° 0 mm 3 mps 735 mmHg 60%
18:00 +22°C° 0 mm 3 mps 735 mmHg 66%
19:00 +21°C° 0 mm 3 mps 735 mmHg 72%
20:00 +20°C° 0 mm 3 mps 735 mmHg 75%
21:00 +19°C° 0 mm 3 mps 735 mmHg 78%
22:00 +18°C° 0 mm 3 mps 735 mmHg 80%
23:00 +18°C° 0 mm 2 mps 735 mmHg 81%

Day after tomorrow, 25 July, Sunday

Time Temperature Precipitation Wind Pressure Humidity
00:00 +18°C° 0 mm 2 mps 735 mmHg 81%
01:00 +18°C° 0 mm 2 mps 735 mmHg 82%
02:00 +18°C° 0 mm 2 mps 734 mmHg 80%
03:00 +18°C° 0 mm 2 mps 734 mmHg 78%
04:00 +18°C° 0 mm 2 mps 734 mmHg 76%
05:00 +20°C° 0 mm 2 mps 734 mmHg 73%
06:00 +21°C° 0 mm 2 mps 734 mmHg 71%
07:00 +23°C° 0 mm 1 mps 735 mmHg 68%
08:00 +23°C° 0 mm 2 mps 735 mmHg 65%
09:00 +24°C° 0 mm 2 mps 735 mmHg 63%
10:00 +25°C° 0 mm 2 mps 735 mmHg 61%
11:00 +26°C° 0 mm 2 mps 735 mmHg 55%
12:00 +28°C° 0 mm 2 mps 735 mmHg 50%
13:00 +29°C° 0 mm 3 mps 734 mmHg 45%
14:00 +28°C° 0 mm 2 mps 734 mmHg 47%
15:00 +28°C° 0 mm 2 mps 734 mmHg 49%
16:00 +27°C° 0 mm 2 mps 734 mmHg 51%
17:00 +26°C° 0 mm 2 mps 734 mmHg 56%
18:00 +24°C° 0 mm 3 mps 733 mmHg 61%
19:00 +21°C° 0 mm 3 mps 733 mmHg 66%
20:00 +21°C° 0.1 mm 4 mps 733 mmHg 69%
21:00 +21°C° 0.1 mm 4 mps 733 mmHg 71%
22:00 +21°C° 0.1 mm 4 mps 733 mmHg 74%
23:00 +20°C° 0.2 mm 4 mps 733 mmHg 76%

26 July, Monday

Time Temperature Precipitation Wind Pressure Humidity
00:00 +19°C° 0.2 mm 3 mps 733 mmHg 78%
01:00 +19°C° 0.2 mm 3 mps 732 mmHg 80%
02:00 +18°C° 0 mm 3 mps 733 mmHg 84%
03:00 +17°C° 0 mm 2 mps 733 mmHg 87%
04:00 +17°C° 0 mm 2 mps 733 mmHg 91%
05:00 +18°C° 0 mm 2 mps 733 mmHg 87%
06:00 +19°C° 0 mm 2 mps 733 mmHg 82%
07:00 +22°C° 0 mm 1 mps 734 mmHg 78%
08:00 +23°C° 0 mm 2 mps 734 mmHg 73%
09:00 +25°C° 0 mm 2 mps 734 mmHg 67%
10:00 +27°C° 0 mm 2 mps 734 mmHg 61%
11:00 +28°C° 0 mm 2 mps 734 mmHg 57%
12:00 +29°C° 0 mm 2 mps 734 mmHg 52%
13:00 +30°C° 0 mm 2 mps 734 mmHg 48%
14:00 +30°C° 0 mm 2 mps 734 mmHg 47%
15:00 +30°C° 0 mm 2 mps 734 mmHg 46%
16:00 +30°C° 0 mm 2 mps 734 mmHg 45%
17:00 +28°C° 0.3 mm 2 mps 733 mmHg 55%
18:00 +26°C° 0.3 mm 1 mps 733 mmHg 66%
19:00 +24°C° 0.3 mm 1 mps 733 mmHg 76%
20:00 +23°C° 0.4 mm 1 mps 733 mmHg 78%
21:00 +23°C° 0.4 mm 1 mps 733 mmHg 81%
22:00 +22°C° 0.4 mm 1 mps 733 mmHg 83%
23:00 +22°C° 0.6 mm 1 mps 733 mmHg 86%

27 July, Tuesday

Time Temperature Precipitation Wind Pressure Humidity
00:00 +21°C° 0.6 mm 1 mps 733 mmHg 88%
01:00 +21°C° 0.6 mm 1 mps 733 mmHg 90%
02:00 +20°C° 1.3 mm 1 mps 733 mmHg 92%
03:00 +19°C° 1.3 mm 2 mps 733 mmHg 94%
04:00 +19°C° 1.3 mm 2 mps 733 mmHg 96%
05:00 +19°C° 1 mm 3 mps 734 mmHg 95%
06:00 +19°C° 1 mm 3 mps 734 mmHg 95%
07:00 +20°C° 1 mm 4 mps 734 mmHg 94%
08:00 +21°C° 0.1 mm 4 mps 735 mmHg 88%
09:00 +22°C° 0.1 mm 4 mps 735 mmHg 82%
10:00 +23°C° 0.1 mm 4 mps 735 mmHg 77%
11:00 +26°C° 0 mm 3 mps 736 mmHg 69%
12:00 +27°C° 0 mm 3 mps 736 mmHg 62%
13:00 +28°C° 0 mm 2 mps 736 mmHg 55%
14:00 +28°C° 0 mm 2 mps 736 mmHg 53%
15:00 +29°C° 0 mm 2 mps 736 mmHg 51%
16:00 +29°C° 0 mm 1 mps 736 mmHg 49%
17:00 +28°C° 0 mm 1 mps 735 mmHg 55%
18:00 +26°C° 0 mm 1 mps 735 mmHg 60%
19:00 +25°C° 0 mm 1 mps 735 mmHg 65%
20:00 +24°C° 0 mm 1 mps 735 mmHg 67%
21:00 +23°C° 0 mm 1 mps 735 mmHg 69%
22:00 +22°C° 0 mm 1 mps 735 mmHg 71%
23:00 +21°C° 0 mm 2 mps 735 mmHg 75%

28 July, Wednesday

Time Temperature Precipitation Wind Pressure Humidity
00:00 +21°C° 0 mm 2 mps 735 mmHg 78%
01:00 +20°C° 0 mm 2 mps 735 mmHg 81%
02:00 +20°C° 0 mm 2 mps 735 mmHg 83%
03:00 +20°C° 0 mm 2 mps 734 mmHg 85%
04:00 +20°C° 0 mm 2 mps 734 mmHg 88%
05:00 +20°C° 0.5 mm 2 mps 734 mmHg 88%
06:00 +20°C° 0.5 mm 3 mps 735 mmHg 89%
07:00 +21°C° 0.5 mm 3 mps 735 mmHg 89%
08:00 +21°C° 0.1 mm 4 mps 735 mmHg 88%
09:00 +21°C° 0.1 mm 4 mps 735 mmHg 86%
10:00 +21°C° 0.1 mm 5 mps 736 mmHg 85%
11:00 +20°C° 0.4 mm 4 mps 736 mmHg 87%
12:00 +19°C° 0.4 mm 4 mps 736 mmHg 90%
13:00 +18°C° 0.4 mm 4 mps 737 mmHg 93%
14:00 +19°C° 0.1 mm 3 mps 737 mmHg 86%
15:00 +21°C° 0.1 mm 3 mps 737 mmHg 79%
16:00 +22°C° 0.1 mm 3 mps 737 mmHg 71%
17:00 +23°C° 0 mm 2 mps 737 mmHg 74%
18:00 +21°C° 0 mm 2 mps 736 mmHg 76%
19:00 +22°C° 0 mm 1 mps 736 mmHg 79%
20:00 +21°C° 0 mm 1 mps 737 mmHg 81%
21:00 +19°C° 0 mm 2 mps 737 mmHg 84%
22:00 +18°C° 0 mm 2 mps 737 mmHg 86%
23:00 +18°C° 0 mm 2 mps 737 mmHg 86%
Show more